Sugar Grove, IL

4:58 AM CST on January 19, 2017 (GMT -0600)
Aurora Municipal

Weather History for KARR - January, 2014

Change the Weather History Date:

Tuesday, January 21, 2014

  Actual Average Record
Temperature  
Mean Temperature 4 °F 21 °F  
Max Temperature 12 °F 29 °F 40 °F (1999)
Min Temperature -5 °F 12 °F -14 °F (2000)
Degree Days  
Heating Degree Days 61 45  
Month to date heating degree days 720 925  
Since 1 July heating degree days 3549 3574  
Cooling Degree Days 0 0  
Month to date cooling degree days 0 0  
Year to date cooling degree days 0 0  
Moisture  
Dew Point -3 °F    
Average Humidity 76    
Maximum Humidity 91    
Minimum Humidity 60    
Precipitation  
Precipitation T in 0.05 in 0.24 in (2006)
Month to date precipitation 0.80 0.90  
Year to date precipitation 0.80 0.90  
Sea Level Pressure  
Sea Level Pressure 30.24 in    
Wind  
Wind Speed 14 mph (NNW)    
Max Wind Speed 31 mph    
Max Gust Speed 37 mph    
Visibility 7 miles    
Events Snow    
T = Trace of Precipitation, MM = Missing Value Source: NWS Daily Summary

Daily Weather History Graph

Daily Weather History Graph

Search for Another Location

Airport or City:

Trip Planner

Search our weather history database for the weather conditions in past years. The results will help you decide how hot, cold, wet, or windy it might be!

Date:

Astronomy

Jan. 21, 2014 Rise Set
Actual Time 7:15 AM CST 4:55 PM CST
Civil Twilight 6:45 AM CST 5:25 PM CST
Nautical Twilight 6:11 AM CST 5:59 PM CST
Astronomical Twilight 5:38 AM CST 6:32 PM CST
Moon 10:33 PM CST (1/21) 9:39 AM CST (1/21)
Length of Visible Light 10h 40m
Length of Day
9h 40m
Waning Gibbous, 74% of the Moon is Illuminated
Jan 21
Waning Gibbous
Jan 23
Last Quarter
Jan 30
New
Feb 6
First Quarter
Feb 14
Full

Hourly Weather History & Observations

Time (CST) Temp. Windchill Dew Point Humidity Pressure Visibility Wind Dir Wind Speed Gust Speed Precip Events Conditions
12:12 AM 12.0 °F -8.1 °F 6.1 °F 77% 30.07 in 1.5 mi North 25.3 mph 31.1 mph 0.00 in Snow Light Snow
12:52 AM 10.9 °F -7.5 °F 6.1 °F 81% 30.12 in 2.5 mi North 19.6 mph 28.8 mph 0.00 in Snow Light Snow
1:10 AM 10.9 °F -9.2 °F 6.1 °F 81% 30.08 in 1.8 mi North 24.2 mph 31.1 mph 0.00 in Snow Light Snow
1:16 AM 10.0 °F -8.6 °F 3.9 °F 76% 30.09 in 2.0 mi North 19.6 mph 31.1 mph 0.00 in Snow Light Snow
1:31 AM 9.0 °F -12.2 °F 3.0 °F 77% 30.10 in 1.8 mi North 25.3 mph 35.7 mph 0.00 in Snow Light Snow
1:52 AM 8.1 °F -13.4 °F 3.0 °F 80% 30.15 in 2.0 mi North 25.3 mph 29.9 mph 0.00 in Snow Light Snow
2:08 AM 7.0 °F -13.6 °F 1.0 °F 77% 30.12 in 4.0 mi North 21.9 mph 28.8 mph 0.00 in   Overcast
2:52 AM 6.1 °F -13.8 °F -0.9 °F 73% 30.19 in 6.0 mi North 19.6 mph - 0.00 in   Haze
3:18 AM 5.0 °F -17.1 °F -2.0 °F 73% 30.16 in 2.0 mi North 24.2 mph 36.8 mph N/A Snow Blowing Snow
3:30 AM 5.0 °F -16.7 °F -2.9 °F 70% 30.17 in 5.0 mi North 23.0 mph 31.1 mph 0.00 in   Haze
3:52 AM 3.9 °F -20.1 °F -4.0 °F 70% 30.22 in 2.5 mi North 28.8 mph 34.5 mph 0.00 in   Partly Cloudy
4:11 AM 3.9 °F -17.6 °F -5.1 °F 66% 30.19 in 5.0 mi North 21.9 mph 29.9 mph 0.00 in Snow Blowing Snow
4:52 AM 3.0 °F -19.7 °F -6.0 °F 66% 30.25 in 3.0 mi North 24.2 mph 33.4 mph 0.00 in   Haze
5:52 AM 1.9 °F -20.7 °F -7.1 °F 66% 30.27 in 6.0 mi North 23.0 mph 31.1 mph 0.00 in   Haze
6:52 AM 1.0 °F -20.4 °F -7.1 °F 69% 30.30 in 9.0 mi North 19.6 mph - N/A   Clear
7:52 AM -0.0 °F -21.3 °F -8.0 °F 69% 30.33 in 10.0 mi North 18.4 mph - N/A   Clear
8:52 AM 1.0 °F -21.4 °F -7.1 °F 69% 30.34 in 8.0 mi North 21.9 mph 27.6 mph N/A   Clear
9:52 AM 1.9 °F -19.8 °F -7.1 °F 66% 30.33 in 10.0 mi North 20.7 mph - N/A   Clear
10:52 AM 3.0 °F -16.7 °F -5.1 °F 69% 30.35 in 10.0 mi NNW 17.3 mph - N/A   Clear
11:52 AM 3.9 °F -15.0 °F -5.1 °F 66% 30.34 in 10.0 mi NNW 16.1 mph - N/A   Clear
12:52 PM 5.0 °F -13.0 °F -4.0 °F 66% 30.31 in 10.0 mi NNW 15.0 mph - N/A   Clear
1:52 PM 6.1 °F -10.9 °F -4.0 °F 63% 30.31 in 10.0 mi NNW 13.8 mph - N/A   Clear
2:52 PM 7.0 °F -10.4 °F -2.9 °F 64% 30.30 in 10.0 mi NW 15.0 mph - N/A   Clear
3:52 PM 6.1 °F -7.8 °F -5.1 °F 60% 30.31 in 10.0 mi NW 9.2 mph - N/A   Clear
4:52 PM 3.9 °F -10.4 °F -5.1 °F 66% 30.30 in 10.0 mi NW 9.2 mph - N/A   Clear
5:52 PM 3.0 °F -8.0 °F -5.1 °F 69% 30.30 in 10.0 mi NW 5.8 mph - N/A   Clear
6:52 PM 1.9 °F -5.6 °F -6.0 °F 69% 30.28 in 10.0 mi West 3.5 mph - N/A   Clear
7:52 PM -0.9 °F -8.9 °F -7.1 °F 75% 30.28 in 10.0 mi West 3.5 mph - N/A   Clear
8:52 PM -0.0 °F - -6.0 °F 76% 30.27 in 10.0 mi Calm Calm - N/A   Clear
9:52 PM -0.9 °F - -7.1 °F 75% 30.26 in 10.0 mi Calm Calm - N/A   Clear
10:52 PM -5.1 °F -17.6 °F -8.0 °F 87% 30.27 in 10.0 mi West 5.8 mph - N/A   Scattered Clouds
11:52 PM -2.0 °F -13.9 °F -8.0 °F 76% 30.26 in 10.0 mi WSW 5.8 mph - N/A   Mostly Cloudy